EDT,Max TemperatureF,Mean TemperatureF,Min TemperatureF,Max Dew PointF,MeanDew PointF,Min DewpointF,Max Humidity, Mean Humidity, Min Humidity, Max Sea Level PressureIn, Mean Sea Level PressureIn, Min Sea Level PressureIn, Max VisibilityMiles, Mean VisibilityMiles, Min VisibilityMiles, Max Wind SpeedMPH, Mean Wind SpeedMPH, Max Gust SpeedMPH,PrecipitationIn, CloudCover, Events, WindDirDegrees
2012-10-1,63,55,48,54,50,46,93,81,63,29.91,29.71,29.60,10,9,2,12,7,,0.04,7,Rain,206
2012-10-2,66,57,48,57,50,46,100,90,63,30.06,29.98,29.91,10,3,0,8,1,,0.05,7,Fog-Rain,185
2012-10-3,64,62,59,61,58,57,94,91,84,30.14,30.08,30.03,10,6,1,5,1,,0.36,8,Rain,342
2012-10-4,64,62,60,61,59,54,94,90,77,30.15,30.10,30.01,10,7,2,5,1,,0.03,8,Rain,38
2012-10-5,78,67,57,60,56,52,94,82,42,30.03,29.96,29.86,10,9,6,9,3,,0.00,6,,187
2012-10-6,69,57,46,60,52,36,90,78,56,29.91,29.77,29.66,10,8,4,14,4,26,0.02,4,Rain,227
2012-10-7,55,46,37,44,38,34,93,72,44,30.05,30.01,29.93,10,10,8,8,2,,0.09,5,Rain,194
2012-10-8,55,46,37,43,40,33,93,80,43,30.32,30.17,30.06,10,10,8,6,1,,0.07,6,Rain,25
2012-10-9,55,47,39,46,40,36,100,81,62,30.32,30.26,30.14,10,7,0,5,1,,0.00,7,Fog,56
2012-10-10,55,50,46,54,48,37,94,87,64,30.13,29.88,29.71,10,6,1,9,1,16,0.21,8,Rain,217
2012-10-11,55,48,41,38,33,27,89,58,37,30.06,29.98,29.80,10,10,10,18,7,26,0.00,5,,240
2012-10-12,51,38,27,40,31,22,85,65,39,30.38,30.12,29.95,10,10,7,17,8,30,0.07,5,Rain,305
2012-10-13,52,36,21,33,24,18,88,62,29,30.47,30.38,30.25,10,10,10,7,3,,0.00,2,Rain,193
2012-10-14,54,46,39,52,44,32,96,89,67,30.26,30.00,29.86,10,5,0,9,3,,0.36,6,Fog-Rain,180
2012-10-15,70,59,48,60,54,46,94,85,63,29.85,29.69,29.57,10,7,0,20,4,28,0.09,5,Fog-Rain,193
2012-10-16,55,47,34,54,37,31,94,66,50,29.90,29.71,29.58,10,10,3,16,5,23,0.00,6,Rain,322
2012-10-17,60,44,28,40,32,27,96,83,32,30.01,29.96,29.91,10,6,0,4,0,,0.00,3,Fog,100
2012-10-18,68,51,34,45,38,31,92,68,35,30.09,30.04,29.99,10,10,9,10,2,,0.02,1,Rain,157
2012-10-19,64,56,48,59,53,44,94,85,77,30.08,29.88,29.70,10,7,1,9,2,,0.54,8,Rain,84
2012-10-20,73,60,45,60,54,41,100,83,32,29.71,29.66,29.55,10,5,0,12,1,16,0.03,6,Rain,196
2012-10-21,60,48,37,45,40,35,93,77,48,29.86,29.81,29.72,10,8,0,18,3,25,0.00,4,Fog-Rain,264
2012-10-22,64,51,37,42,38,34,86,62,40,30.01,29.93,29.87,10,10,10,14,4,24,0.00,2,,298
2012-10-23,61,48,35,42,37,32,93,78,49,30.16,30.09,30.02,10,9,7,8,1,,0.00,0,,1
2012-10-24,61,44,30,39,32,27,96,77,32,30.24,30.20,30.13,10,7,0,5,0,,0.00,4,Fog,350
2012-10-25,62,51,41,43,38,33,86,66,35,30.28,30.24,30.22,10,10,8,8,1,,0.00,5,,209
2012-10-26,66,54,42,51,45,39,93,83,59,30.22,30.17,30.09,10,8,1,8,1,,0.00,4,,229
2012-10-27,59,52,44,53,48,43,97,90,78,30.13,30.07,30.01,10,3,0,6,0,,0.01,7,Fog,172
2012-10-28,61,52,45,50,44,40,89,71,51,30.03,29.95,29.87,10,9,3,7,1,,0.00,4,,58
2012-10-29,63,58,52,56,50,44,88,77,59,29.85,29.51,29.27,10,7,2,17,10,32,0.73,8,Rain,53
2012-10-30,68,61,53,57,54,51,94,81,56,29.53,29.46,29.31,10,6,1,20,7,44,1.40,7,Rain-Thunderstorm,148
2012-10-31,57,50,43,54,47,39,94,82,61,29.52,29.47,29.42,10,8,1,15,3,26,0.10,7,Rain,183